Regional Weather Roundup
Issued by NWS Albany, NY

Home | Current Version | Previous Version | Graphics & Text | Print | Product List | Glossary On
Versions: 1 2 3 4 5 6 7 8 9 10 11 12 13 14 15 16 17 18 19 20 21 22 23 24 25 26 27 28 29 30 31 32 33 34 35 36 37 38 39 40 41 42 43 44 45 46 47 48 49 50
000
ASUS41 KALY 020310
RWRALY

NEW YORK STATE HOURLY WEATHER ROUNDUP
NATIONAL WEATHER SERVICE ALBANY NY
1100 PM EDT SAT AUG 01 2015

NOTE: "FAIR" INDICATES FEW OR NO CLOUDS BELOW 12,000 FEET WITH NO
SIGNIFICANT WEATHER AND/OR NO OBSTRUCTIONS TO VISIBILITY.

NYZ032-033-038>043-046>054-057>066-NYZ062>081-020400-
EAST


CITY           SKY/WX    TMP DP  RH WIND       PRES   REMARKS
ALBANY         CLEAR     68  54  60 SW3       29.86R
GLENS FALLS    CLEAR     61  53  75 CALM      29.84R
POUGHKEEPSIE   CLEAR     69  58  67 CALM      29.84R
NEWBURGH       CLEAR     70  59  68 W6        29.88R
MONTGOMERY     PTCLDY    72  58  61 W8        29.87R
WHITE PLAINS   PTCLDY    73  59  61 NW6       29.86R
ISLIP          PTCLDY    75  58  55 W6        29.83R
NEW YORK CITY  PTCLDY    80  57  45 NW6       29.84S
CENTRAL PARK   CLEAR     79  55  43 VRB5      29.88R
$$

NYZ005>009-017-018-044>046-055-056-020400-
CENTRAL


CITY           SKY/WX    TMP DP  RH WIND       PRES   REMARKS
FULTON         CLEAR     61  57  87 CALM      29.86S
SYRACUSE       PTCLDY    64  59  83 E3        29.86R
ROME           PTCLDY    60  55  83 NE5       29.88R
ELMIRA         PTCLDY    60  55  83 W3        29.89S
BINGHAMTON     CLEAR     67  52  58 CALM      29.92R
MONTICELLO     CLEAR     63  55  77 CALM      29.93R
$$

NYZ026>034-041>043-020400-
NORTH


CITY           SKY/WX    TMP DP  RH WIND       PRES   REMARKS
WATERTOWN      CLEAR     61  57  87 E3        29.83S
FORT DRUM      NOT AVBL
MASSENA        CLOUDY    59  56  89 S7        29.81S
SARANAC LAKE   CLOUDY    55  54  96 CALM      29.86F
PLATTSBURGH    MOCLDY    66  52  60 SW3       29.80S
$$

NYZ001>004-010>016-019>021-020400-
WEST


CITY           SKY/WX    TMP DP  RH WIND       PRES   REMARKS
NIAGARA FALLS  PTCLDY    65  57  75 SW9       29.86
BUFFALO        PTCLDY    69  58  67 SW6       29.87S
DUNKIRK        CLEAR     66  57  72 S7        29.89S
JAMESTOWN      PTCLDY    64  54  68 SW5       29.94F
WELLSVILLE     CLEAR     62  49  62 W5        29.97S
ROCHESTER      PTCLDY    65  57  75 SW7       29.87R
PENN YAN       CLEAR     63  56  78 S6        29.89S
$$

             KEY
       WCI = WIND CHILL INDEX
       VSB = VISIBILITY
       HX  = HEAT INDEX
$$


USA.gov is the U.S. government's official web portal to all federal, state and local government web resources and services.